Change the Weather History Date:

Saturday, October 29, 2011

  Actual Average Record
Temperature  
Mean Temperature 67 °F 65 °F  
Max Temperature 88 °F 79 °F 95 °F (1965)
Min Temperature 45 °F 51 °F 33 °F (1919)
Degree Days  
Heating Degree Days 0 2  
Month to date heating degree days 25 26  
Since 1 July heating degree days 25 28  
Cooling Degree Days 2 2  
Month to date cooling degree days 155 134  
Year to date cooling degree days 1698 1726  
Growing Degree Days 19 (Base 50)    
Moisture  
Dew Point 33 °F    
Average Humidity 30    
Maximum Humidity 52    
Minimum Humidity 7    
Precipitation  
Precipitation 0.00 in 0.02 in 0.39 in (1942)
Month to date precipitation 0.53 0.25  
Year to date precipitation 5.11 9.84  
Since 1 July precipitation 0.91 0.65  
Snow  
Snow 0.00 in - - ()
Month to date snowfall 0.0  
Year to date snowfall 0.0  
Since 1 July snowfall 0.0  
Snow Depth 0.00 in    
Sea Level Pressure  
Sea Level Pressure 29.98 in    
Wind  
Wind Speed 4 mph (NE)    
Max Wind Speed 10 mph    
Max Gust Speed 15 mph    
Visibility 10 miles    
Events      
T = Trace of Precipitation, MM = Missing Value Source: NWS Daily Summary

Daily Weather History Graph

Daily Weather History Graph

Search for Another Location

Airport or City:

Trip Planner

Search our weather history database for the weather conditions in past years. The results will help you decide how hot, cold, wet, or windy it might be!

Date:

Astronomy

Oct. 29, 2011 Rise Set
Actual Time 7:06 AM PDT 6:00 PM PDT
Civil Twilight 6:40 AM PDT 6:25 PM PDT
Nautical Twilight 6:11 AM PDT 6:55 PM PDT
Astronomical Twilight 5:42 AM PDT 7:24 PM PDT
Moon 10:24 AM PDT (10/29) 8:37 PM PDT (10/29)
Length of Visible Light 11h 45m
Length of Day
10h 53m
Waxing Crescent, 12% of the Moon is Illuminated
Oct 29
Waxing Crescent
Nov 2
First Quarter
Nov 10
Full
Nov 18
Last Quarter
Nov 24
New

Hourly Weather History & Observations

Time (PDT) Temp. Dew Point Humidity Pressure Visibility Wind Dir Wind Speed Gust Speed Precip Events Conditions
12:53 AM 55.9 °F 34.0 °F 44% 30.02 in 10.0 mi Calm Calm - N/A   Clear
1:53 AM 53.1 °F 35.1 °F 50% 30.02 in 10.0 mi East 3.5 mph - N/A   Clear
3:53 AM 52.0 °F 32.0 °F 47% 29.99 in 10.0 mi NE 5.8 mph - N/A   Clear
4:53 AM 52.0 °F 30.0 °F 43% 29.99 in 10.0 mi ENE 4.6 mph - N/A   Clear
5:53 AM 52.0 °F 30.0 °F 43% 29.99 in 10.0 mi ENE 4.6 mph - N/A   Clear
6:53 AM 51.1 °F 28.9 °F 43% 30.00 in 10.0 mi NE 6.9 mph - N/A   Clear
8:53 AM 57.9 °F 30.0 °F 35% 30.03 in 10.0 mi NE 5.8 mph - N/A   Clear
9:53 AM 66.0 °F 30.9 °F 27% 30.02 in 10.0 mi NE 3.5 mph - N/A   Clear
10:53 AM 73.9 °F 30.0 °F 20% 30.02 in 10.0 mi Calm Calm - N/A   Clear
11:53 AM 84.0 °F 21.0 °F 10% 29.99 in 10.0 mi Variable 4.6 mph - N/A   Clear
12:53 PM 86.0 °F 19.9 °F 9% 29.96 in 10.0 mi ENE 4.6 mph - N/A   Clear
1:53 PM 87.1 °F 21.9 °F 9% 29.94 in 10.0 mi Calm Calm - N/A   Clear
2:53 PM 87.1 °F 19.0 °F 8% 29.92 in 10.0 mi Variable 3.5 mph - N/A   Clear
4:53 PM 82.0 °F 37.0 °F 20% 29.92 in 10.0 mi West 6.9 mph - N/A   Clear
5:53 PM 78.1 °F 41.0 °F 27% 29.93 in 10.0 mi West 4.6 mph - N/A   Clear
6:53 PM 73.0 °F 42.1 °F 33% 29.95 in 10.0 mi Calm Calm - N/A   Clear
7:53 PM 69.1 °F 42.1 °F 38% 29.96 in 10.0 mi Calm Calm - N/A   Clear
8:53 PM 66.0 °F 42.1 °F 42% 29.97 in 10.0 mi ESE 3.5 mph - N/A   Clear
9:53 PM 63.0 °F 43.0 °F 48% 29.98 in 10.0 mi Calm Calm - N/A   Clear
10:53 PM 57.9 °F 44.1 °F 60% 29.99 in 10.0 mi Calm Calm - N/A   Clear
11:53 PM 60.1 °F 43.0 °F 53% 29.98 in 10.0 mi NE 3.5 mph - N/A   Clear